Location: *
(42.3442°N, 9.2072°E)
Time: 08:13:57
(UTC+00:00)

CZ-2C R/B - Pass Details

Date: 09 April 2020
Orbit: 639 x 705 km, 98.4° (Epoch: 05 June)

Event Time Altitude Azimuth Distance (km) Brightness Sun altitude
Rises 18:49:30 0° 20° (NNE) 3,074 7.1 -9.9°
Reaches altitude 10° 18:51:54 10° 28° (NNE) 2,143 6.3 -10.3°
Maximum altitude 18:56:19 40° 98° (E) 995 4.1 -11.1°
Drops below altitude 10° 19:00:37 10° 168° (SSE) 2,088 5.9 -11.8°
Sets 19:02:55 0° 176° (S) 2,986 6.8 -12.2°
